timestamp,wind_dir_avg,wind_spd_avg,wind_spd_max_dir,wind_spd_gust,battery_voltage,lat,long
2024-03-21 00:04:00+00:00,215.0,4.16,220.0,5.02,12.25,47.59359,-54.27349
2024-03-21 00:14:00+00:00,189.0,2.36,240.0,3.73,12.17,47.59359,-54.27349
2024-03-21 00:24:00+00:00,190.0,4.28,213.0,5.69,12.17,47.59359,-54.27349
2024-03-21 00:34:00+00:00,213.0,6.85,226.0,8.31,12.17,47.59359,-54.27349
2024-03-21 00:44:00+00:00,215.0,6.7,221.0,7.37,12.17,47.59359,-54.27349
2024-03-21 00:54:00+00:00,205.0,5.56,213.0,6.13,12.17,47.59359,-54.27349
2024-03-21 01:04:00+00:00,173.0,4.7,162.0,5.32,12.17,47.59359,-54.27349
2024-03-21 01:14:00+00:00,204.0,4.2,220.0,5.23,12.17,47.59359,-54.27349
2024-03-21 01:24:00+00:00,196.0,4.71,215.0,5.58,12.17,47.59359,-54.27349
2024-03-21 01:34:00+00:00,211.0,6.64,214.0,7.33,12.17,47.59359,-54.27349
2024-03-21 01:44:00+00:00,213.0,6.93,215.0,8.19,12.17,47.59359,-54.27349
2024-03-21 01:54:00+00:00,233.0,6.33,242.0,9.44,12.17,47.59359,-54.27349
2024-03-21 02:04:00+00:00,231.0,4.63,218.0,5.15,12.17,47.59359,-54.27349
2024-03-21 02:14:00+00:00,229.0,5.18,235.0,6.51,12.17,47.59359,-54.27349
2024-03-21 02:24:00+00:00,223.0,3.88,225.0,4.51,12.17,47.59359,-54.27349
2024-03-21 02:34:00+00:00,207.0,5.71,209.0,6.55,12.17,47.59359,-54.27349
2024-03-21 02:44:00+00:00,213.0,6.16,210.0,7.02,12.17,47.59359,-54.27349
2024-03-21 02:54:00+00:00,227.0,4.93,226.0,5.31,12.17,47.59359,-54.27349
2024-03-21 03:04:00+00:00,186.0,4.06,212.0,5.78,12.17,47.59359,-54.27349
2024-03-21 03:14:01+00:00,210.0,5.09,214.0,6.05,12.17,47.59359,-54.27349
2024-03-21 03:24:01+00:00,211.0,6.08,210.0,6.82,12.17,47.59359,-54.27349
2024-03-21 03:34:01+00:00,217.0,5.95,216.0,6.66,12.17,47.59359,-54.27349
2024-03-21 03:44:01+00:00,203.0,5.0,212.0,5.95,12.17,47.59359,-54.27349
2024-03-21 03:54:01+00:00,193.0,3.49,219.0,4.65,12.17,47.59359,-54.27349
2024-03-21 04:04:01+00:00,207.0,5.43,210.0,6.51,12.17,47.59359,-54.27349
2024-03-21 04:14:00+00:00,204.0,5.66,210.0,6.37,12.09,47.59359,-54.27349
2024-03-21 04:24:00+00:00,196.0,5.62,209.0,6.78,12.09,47.59359,-54.27349
2024-03-21 04:34:00+00:00,176.0,5.25,203.0,6.45,12.09,47.59359,-54.27349
2024-03-21 04:44:00+00:00,218.0,5.16,244.0,6.18,12.09,47.59359,-54.27349
2024-03-21 04:54:00+00:00,238.0,6.09,249.0,9.52,12.09,47.59359,-54.27349
2024-03-21 05:04:00+00:00,240.0,3.72,239.0,4.18,12.09,47.59359,-54.27349
2024-03-21 05:14:00+00:00,232.0,4.33,229.0,4.88,12.09,47.59359,-54.27349
2024-03-21 05:24:00+00:00,244.0,3.49,219.0,4.2,12.09,47.59359,-54.27349
2024-03-21 05:34:00+00:00,148.0,2.09,218.0,2.79,12.09,47.59359,-54.27349
2024-03-21 05:44:00+00:00,153.0,3.69,154.0,4.35,12.09,47.59359,-54.27349
2024-03-21 05:54:00+00:00,167.0,3.26,221.0,4.41,12.09,47.59359,-54.27349
2024-03-21 06:04:00+00:00,174.0,3.52,219.0,4.69,12.09,47.59359,-54.27349
2024-03-21 06:14:00+00:00,152.0,4.12,153.0,4.5,12.09,47.59359,-54.27349
2024-03-21 06:24:00+00:00,149.0,3.78,153.0,4.36,12.09,47.59359,-54.27349
2024-03-21 06:34:00+00:00,176.0,3.02,184.0,3.24,12.09,47.59359,-54.27349
2024-03-21 06:44:00+00:00,181.0,3.26,219.0,4.29,12.09,47.59359,-54.27349
2024-03-21 06:54:00+00:00,206.0,5.18,214.0,5.95,12.09,47.59359,-54.27349
2024-03-21 07:04:00+00:00,213.0,5.66,213.0,6.32,12.09,47.59359,-54.27349
2024-03-21 07:14:01+00:00,219.0,4.82,218.0,5.06,12.09,47.59359,-54.27349
2024-03-21 07:24:01+00:00,202.0,4.58,213.0,5.46,12.09,47.59359,-54.27349
2024-03-21 07:34:01+00:00,186.0,4.04,214.0,5.69,12.09,47.59359,-54.27349
2024-03-21 07:44:01+00:00,169.0,4.04,163.0,4.51,12.09,47.59359,-54.27349
2024-03-21 07:54:01+00:00,171.0,2.99,155.0,3.43,12.09,47.59359,-54.27349
2024-03-21 08:04:01+00:00,157.0,3.4,147.0,4.15,12.09,47.59359,-54.27349
2024-03-21 08:14:00+00:00,165.0,4.71,156.0,5.38,12.01,47.59359,-54.27349
2024-03-21 08:24:00+00:00,315.0,0.01,168.0,0.0,12.01,47.59359,-54.27349
2024-03-21 08:34:00+00:00,177.0,4.96,177.0,5.09,12.01,47.59359,-54.27349
2024-03-21 08:44:00+00:00,315.0,0.01,198.0,0.0,12.01,47.59359,-54.27349
2024-03-21 08:54:00+00:00,198.0,5.31,203.0,6.25,12.01,47.59359,-54.27349
2024-03-21 09:04:00+00:00,208.0,3.51,212.0,3.98,12.01,47.59359,-54.27349
2024-03-21 09:14:00+00:00,206.0,3.44,208.0,3.77,12.01,47.59359,-54.27349
2024-03-21 09:24:00+00:00,176.0,2.09,178.0,2.41,12.01,47.59359,-54.27349
2024-03-21 09:34:00+00:00,173.0,2.14,159.0,2.71,12.01,47.59359,-54.27349
2024-03-21 09:44:00+00:00,185.0,1.07,198.0,1.2,12.01,47.59359,-54.27349
2024-03-21 09:54:00+00:00,142.0,1.65,156.0,2.51,12.01,47.59359,-54.27349
2024-03-21 10:04:00+00:00,177.0,1.68,222.0,2.45,12.01,47.59359,-54.27349
2024-03-21 10:14:00+00:00,194.0,4.71,198.0,5.28,12.01,47.59359,-54.27349
2024-03-21 10:24:00+00:00,200.0,3.54,212.0,3.98,12.01,47.59359,-54.27349
2024-03-21 10:34:00+00:00,171.0,4.26,169.0,5.06,12.01,47.59359,-54.27349
2024-03-21 10:44:00+00:00,178.0,3.81,197.0,5.36,12.01,47.59359,-54.27349
2024-03-21 10:54:00+00:00,195.0,5.32,196.0,6.1,12.01,47.59359,-54.27349
2024-03-21 11:04:00+00:00,315.0,0.01,170.0,0.0,12.01,47.59359,-54.27349
2024-03-21 11:14:00+00:00,315.0,0.01,198.0,0.0,12.01,47.59359,-54.27349
2024-03-21 11:24:00+00:00,315.0,0.01,195.0,0.0,12.01,47.59359,-54.27349
2024-03-21 11:34:00+00:00,315.0,0.01,166.0,0.0,12.01,47.59359,-54.27349
2024-03-21 11:44:00+00:00,196.0,3.32,197.0,3.33,12.01,47.59359,-54.27349
2024-03-21 11:54:00+00:00,191.0,3.58,198.0,3.94,12.01,47.59359,-54.27349
2024-03-21 12:04:00+00:00,183.0,2.95,211.0,3.53,12.01,47.59359,-54.27349
2024-03-21 12:14:00+00:00,197.0,2.96,202.0,3.36,12.17,47.59359,-54.27349
2024-03-21 12:24:00+00:00,193.0,3.14,135.0,4.21,12.17,47.59359,-54.27349
2024-03-21 12:34:00+00:00,187.0,2.41,126.0,3.7,12.17,47.59359,-54.27349
2024-03-21 12:44:00+00:00,206.0,2.14,128.0,3.77,12.17,47.59359,-54.27349
2024-03-21 12:54:00+00:00,145.0,3.21,132.0,4.12,12.17,47.59359,-54.27349
2024-03-21 13:04:00+00:00,143.0,1.75,128.0,3.99,12.17,47.59359,-54.27349
2024-03-21 13:14:00+00:00,177.0,1.02,219.0,1.73,12.33,47.59359,-54.27349
2024-03-21 13:24:00+00:00,214.0,0.97,151.0,2.49,12.33,47.59359,-54.27349
2024-03-21 13:34:00+00:00,12.0,0.45,330.0,2.36,12.33,47.59359,-54.27349
2024-03-21 13:44:00+00:00,301.0,0.71,317.0,1.59,12.33,47.59359,-54.27349
2024-03-21 13:54:00+00:00,315.0,0.01,272.0,0.0,12.33,47.59359,-54.27349
2024-03-21 14:04:00+00:00,341.0,1.32,340.0,1.43,12.33,47.59359,-54.27349
2024-03-21 14:14:01+00:00,323.0,0.13,93.0,3.74,12.41,47.59359,-54.27349
2024-03-21 14:24:01+00:00,310.0,1.14,324.0,2.33,12.41,47.59359,-54.27349
2024-03-21 14:34:01+00:00,11.0,0.58,85.0,1.47,12.41,47.59359,-54.27349
2024-03-21 14:44:01+00:00,235.0,1.25,204.0,2.88,12.41,47.59359,-54.27349
2024-03-21 14:54:01+00:00,111.0,3.1,109.0,9.72,12.41,47.59359,-54.27349
2024-03-21 15:04:01+00:00,111.0,8.35,115.0,10.02,12.41,47.59359,-54.27349
2024-03-21 15:14:00+00:00,146.0,1.71,170.0,5.08,12.73,47.59359,-54.27349
2024-03-21 15:24:00+00:00,93.0,2.72,121.0,4.02,12.73,47.59359,-54.27349
2024-03-21 15:34:00+00:00,315.0,0.01,209.0,0.0,12.73,47.59359,-54.27349
2024-03-21 15:44:00+00:00,315.0,0.01,209.0,0.0,12.73,47.59359,-54.27349
2024-03-21 15:54:00+00:00,315.0,0.01,209.0,0.0,12.73,47.59359,-54.27349
2024-03-21 16:04:00+00:00,315.0,0.01,209.0,0.0,12.73,47.59359,-54.27349
2024-03-21 16:14:00+00:00,315.0,0.01,209.0,0.0,13.13,47.59359,-54.27349
2024-03-21 16:24:00+00:00,315.0,0.01,209.0,0.0,13.13,47.59359,-54.27349
2024-03-21 16:34:00+00:00,315.0,0.01,209.0,0.0,13.13,47.59359,-54.27349
2024-03-21 16:44:00+00:00,315.0,0.01,209.0,0.0,13.13,47.59359,-54.27349
2024-03-21 16:54:00+00:00,80.0,7.47,80.0,10.63,13.13,47.59359,-54.27349
2024-03-21 17:04:00+00:00,315.0,0.01,77.0,0.0,13.13,47.59359,-54.27349
2024-03-21 17:14:00+00:00,315.0,0.01,77.0,0.0,13.21,47.59359,-54.27349
2024-03-21 17:24:00+00:00,315.0,0.01,77.0,0.0,13.21,47.59359,-54.27349
2024-03-21 17:34:00+00:00,79.0,8.82,82.0,10.66,13.21,47.59359,-54.27349
2024-03-21 17:44:00+00:00,80.0,7.73,83.0,10.1,13.21,47.59359,-54.27349
2024-03-21 17:54:00+00:00,76.0,5.63,91.0,9.72,13.21,47.59359,-54.27349
2024-03-21 18:04:00+00:00,66.0,3.63,56.0,4.82,13.21,47.59359,-54.27349
2024-03-21 18:14:00+00:00,0.0,2.1,52.0,3.71,12.97,47.59359,-54.27349
2024-03-21 18:24:00+00:00,29.0,3.62,32.0,4.88,12.97,47.59359,-54.27349
2024-03-21 18:34:00+00:00,357.0,3.83,350.0,4.39,12.97,47.59359,-54.27349
2024-03-21 18:44:00+00:00,315.0,0.01,299.0,0.0,12.97,47.59359,-54.27349
2024-03-21 18:54:00+00:00,150.0,9.55,159.0,10.85,12.97,47.59359,-54.27349
2024-03-21 19:04:00+00:00,143.0,5.3,146.0,5.8,12.97,47.59359,-54.27349
2024-03-21 19:14:00+00:00,147.0,8.71,147.0,10.23,12.73,47.59359,-54.27349
2024-03-21 19:24:00+00:00,315.0,0.01,149.0,0.0,12.73,47.59359,-54.27349
2024-03-21 19:34:00+00:00,315.0,0.01,274.0,0.0,12.73,47.59359,-54.27349
2024-03-21 19:44:00+00:00,315.0,0.01,253.0,0.0,12.73,47.59359,-54.27349
2024-03-21 19:54:00+00:00,164.0,14.17,164.0,16.37,12.73,47.59359,-54.27349
2024-03-21 20:04:00+00:00,164.0,14.25,160.0,16.0,12.73,47.59359,-54.27349
2024-03-21 20:14:01+00:00,163.0,13.74,163.0,15.54,12.41,47.59359,-54.27349
2024-03-21 20:24:01+00:00,163.0,14.26,165.0,16.73,12.41,47.59359,-54.27349
2024-03-21 20:34:01+00:00,162.0,14.19,168.0,16.76,12.41,47.59359,-54.27349
2024-03-21 20:44:01+00:00,165.0,16.4,167.0,18.54,12.41,47.59359,-54.27349
2024-03-21 20:54:01+00:00,164.0,13.28,162.0,15.0,12.41,47.59359,-54.27349
2024-03-21 21:04:01+00:00,166.0,14.26,168.0,16.61,12.41,47.59359,-54.27349
2024-03-21 21:14:00+00:00,203.0,13.75,205.0,14.38,12.33,47.59359,-54.27349
2024-03-21 21:24:00+00:00,183.0,17.13,171.0,17.93,12.33,47.59359,-54.27349
2024-03-21 21:34:00+00:00,191.0,16.61,193.0,17.11,12.33,47.59359,-54.27349
2024-03-21 21:44:00+00:00,167.0,14.81,168.0,14.81,12.33,47.59359,-54.27349
2024-03-21 21:54:00+00:00,195.0,16.77,195.0,16.8,12.33,47.59359,-54.27349
2024-03-21 22:04:00+00:00,200.0,14.48,198.0,14.74,12.33,47.59359,-54.27349
2024-03-21 22:14:00+00:00,200.0,13.97,201.0,13.98,12.25,47.59359,-54.27349
2024-03-21 22:24:00+00:00,315.0,0.01,193.0,0.0,12.25,47.59359,-54.27349
2024-03-21 22:34:00+00:00,165.0,16.73,165.0,16.74,12.25,47.59359,-54.27349
2024-03-21 22:44:00+00:00,315.0,0.01,197.0,0.0,12.25,47.59359,-54.27349
2024-03-21 22:54:00+00:00,315.0,0.01,204.0,0.0,12.25,47.59359,-54.27349
2024-03-21 23:04:00+00:00,315.0,0.01,190.0,0.0,12.25,47.59359,-54.27349
2024-03-21 23:14:00+00:00,315.0,0.01,195.0,0.0,12.17,47.59359,-54.27349
2024-03-21 23:24:00+00:00,192.0,14.27,193.0,14.28,12.17,47.59359,-54.27349
2024-03-21 23:34:00+00:00,202.0,12.0,202.0,12.28,12.17,47.59359,-54.27349
2024-03-21 23:44:00+00:00,201.0,11.42,206.0,13.14,12.17,47.59359,-54.27349
2024-03-21 23:54:00+00:00,207.0,9.76,205.0,11.6,12.17,47.59359,-54.27349
